When you browse on this site, cookies collect data to enhance your experience and personalize the content and advertising you see.
Visit our Privacy Policy to learn more. By continuing to use the site, you agree to this use of cookies and data.
  • In Lithuania
  • List of Countries
  • For 7 days
  • Water Temperature
  • Weather Map
  • Weather Widgets
  • user-avatar
    Login

    Hourly Weather Liverpool

    Today, 7 April, Tuesday

    Time Temperature Precipitation Wind Pressure Humidity
    00:00 +7°C° 0 mm 2 mps 769 mmHg 77%
    01:00 +6°C° 0 mm 2 mps 769 mmHg 78%
    02:00 +6°C° 0 mm 2 mps 769 mmHg 79%
    03:00 +6°C° 0 mm 2 mps 770 mmHg 81%
    04:00 +5°C° 0 mm 2 mps 770 mmHg 81%
    05:00 +5°C° 0 mm 2 mps 770 mmHg 81%
    06:00 +5°C° 0 mm 2 mps 771 mmHg 81%
    07:00 +7°C° 0 mm 2 mps 771 mmHg 75%
    08:00 +9°C° 0 mm 3 mps 771 mmHg 69%
    09:00 +10°C° 0 mm 3 mps 770 mmHg 62%
    10:00 +12°C° 0 mm 3 mps 770 mmHg 59%
    11:00 +13°C° 0 mm 4 mps 770 mmHg 55%
    12:00 +14°C° 0 mm 4 mps 770 mmHg 52%
    13:00 +15°C° 0 mm 4 mps 770 mmHg 53%
    14:00 +15°C° 0 mm 4 mps 769 mmHg 54%
    15:00 +16°C° 0 mm 3 mps 769 mmHg 56%
    16:00 +16°C° 0 mm 3 mps 769 mmHg 60%
    17:00 +15°C° 0 mm 2 mps 769 mmHg 65%
    18:00 +14°C° 0 mm 2 mps 768 mmHg 69%
    19:00 +13°C° 0 mm 1 mps 769 mmHg 73%
    20:00 +11°C° 0 mm 1 mps 769 mmHg 77%
    21:00 +10°C° 0 mm 1 mps 769 mmHg 81%
    22:00 +10°C° 0 mm 1 mps 769 mmHg 81%
    23:00 +9°C° 0 mm 1 mps 769 mmHg 81%

    Tomorrow, 8 April, Wednesday

    Time Temperature Precipitation Wind Pressure Humidity
    00:00 +9°C° 0 mm 1 mps 769 mmHg 81%
    01:00 +9°C° 0 mm 1 mps 769 mmHg 79%
    02:00 +10°C° 0 mm 1 mps 768 mmHg 78%
    03:00 +10°C° 0 mm 1 mps 768 mmHg 77%
    04:00 +10°C° 0 mm 1 mps 768 mmHg 78%
    05:00 +10°C° 0 mm 1 mps 768 mmHg 79%
    06:00 +10°C° 0 mm 1 mps 768 mmHg 80%
    07:00 +11°C° 0 mm 1 mps 768 mmHg 77%
    08:00 +13°C° 0 mm 1 mps 768 mmHg 73%
    09:00 +14°C° 0 mm 1 mps 767 mmHg 69%
    10:00 +15°C° 0 mm 1 mps 767 mmHg 66%
    11:00 +16°C° 0 mm 1 mps 767 mmHg 63%
    12:00 +19°C° 0 mm 1 mps 767 mmHg 60%
    13:00 +17°C° 0 mm 2 mps 767 mmHg 60%
    14:00 +17°C° 0 mm 2 mps 766 mmHg 61%
    15:00 +17°C° 0 mm 2 mps 766 mmHg 62%
    16:00 +16°C° 0 mm 2 mps 766 mmHg 66%
    17:00 +15°C° 0 mm 2 mps 766 mmHg 70%
    18:00 +14°C° 0 mm 2 mps 766 mmHg 74%
    19:00 +13°C° 0 mm 2 mps 766 mmHg 78%
    20:00 +12°C° 0 mm 1 mps 767 mmHg 82%
    21:00 +10°C° 0 mm 1 mps 767 mmHg 86%
    22:00 +10°C° 0 mm 1 mps 767 mmHg 87%
    23:00 +9°C° 0 mm 0 mps 767 mmHg 88%

    Day after tomorrow, 9 April, Thursday

    Time Temperature Precipitation Wind Pressure Humidity
    00:00 +9°C° 0 mm 0 mps 767 mmHg 89%
    01:00 +9°C° 0 mm 0 mps 767 mmHg 89%
    02:00 +9°C° 0 mm 0 mps 767 mmHg 90%
    03:00 +8°C° 0 mm 0 mps 767 mmHg 90%
    04:00 +9°C° 0 mm 1 mps 767 mmHg 90%
    05:00 +9°C° 0 mm 1 mps 767 mmHg 89%
    06:00 +9°C° 0 mm 1 mps 767 mmHg 89%
    07:00 +11°C° 0 mm 1 mps 767 mmHg 85%
    08:00 +12°C° 0 mm 2 mps 768 mmHg 80%
    09:00 +13°C° 0 mm 3 mps 768 mmHg 75%
    10:00 +14°C° 0 mm 3 mps 768 mmHg 74%
    11:00 +14°C° 0 mm 3 mps 768 mmHg 72%
    12:00 +15°C° 0 mm 4 mps 768 mmHg 70%
    13:00 +17°C° 0 mm 4 mps 768 mmHg 70%
    14:00 +17°C° 0 mm 3 mps 767 mmHg 69%
    15:00 +17°C° 0 mm 3 mps 767 mmHg 69%
    16:00 +17°C° 0 mm 3 mps 767 mmHg 72%
    17:00 +16°C° 0 mm 3 mps 767 mmHg 76%
    18:00 +16°C° 0 mm 3 mps 767 mmHg 79%
    19:00 +14°C° 0 mm 3 mps 767 mmHg 82%
    20:00 +13°C° 0 mm 4 mps 767 mmHg 85%
    21:00 +12°C° 0 mm 4 mps 768 mmHg 88%
    22:00 +11°C° 0 mm 4 mps 768 mmHg 89%
    23:00 +11°C° 0 mm 4 mps 768 mmHg 89%

    10 April, Friday

    Time Temperature Precipitation Wind Pressure Humidity
    00:00 +10°C° 0 mm 4 mps 768 mmHg 90%
    01:00 +10°C° 0 mm 4 mps 767 mmHg 90%
    02:00 +11°C° 0 mm 4 mps 767 mmHg 90%
    03:00 +11°C° 0 mm 4 mps 767 mmHg 90%
    04:00 +10°C° 0 mm 4 mps 767 mmHg 89%
    05:00 +10°C° 0 mm 4 mps 767 mmHg 89%
    06:00 +10°C° 0 mm 4 mps 767 mmHg 89%
    07:00 +11°C° 0 mm 4 mps 766 mmHg 86%
    08:00 +12°C° 0 mm 4 mps 766 mmHg 83%
    09:00 +13°C° 0 mm 3 mps 766 mmHg 81%
    10:00 +14°C° 0 mm 3 mps 766 mmHg 78%
    11:00 +16°C° 0 mm 2 mps 766 mmHg 75%
    12:00 +18°C° 0 mm 2 mps 766 mmHg 72%
    13:00 +18°C° 0.2 mm 2 mps 765 mmHg 72%
    14:00 +18°C° 0.2 mm 2 mps 765 mmHg 72%
    15:00 +18°C° 0.2 mm 2 mps 764 mmHg 72%
    16:00 +17°C° 0.1 mm 2 mps 764 mmHg 75%
    17:00 +16°C° 0.1 mm 2 mps 764 mmHg 79%
    18:00 +16°C° 0.1 mm 2 mps 764 mmHg 82%
    19:00 +15°C° 0 mm 2 mps 764 mmHg 84%
    20:00 +14°C° 0 mm 1 mps 764 mmHg 86%
    21:00 +13°C° 0 mm 1 mps 764 mmHg 88%
    22:00 +13°C° 0 mm 1 mps 764 mmHg 88%
    23:00 +13°C° 0 mm 1 mps 764 mmHg 87%

    11 April, Saturday

    Time Temperature Precipitation Wind Pressure Humidity
    00:00 +13°C° 0 mm 1 mps 764 mmHg 86%
    01:00 +12°C° 0 mm 1 mps 764 mmHg 87%
    02:00 +12°C° 0 mm 1 mps 764 mmHg 88%
    03:00 +12°C° 0 mm 2 mps 764 mmHg 89%
    04:00 +11°C° 0.1 mm 3 mps 764 mmHg 89%
    05:00 +11°C° 0.1 mm 3 mps 764 mmHg 90%
    06:00 +11°C° 0.1 mm 4 mps 765 mmHg 90%
    07:00 +10°C° 0 mm 4 mps 765 mmHg 86%
    08:00 +10°C° 0 mm 4 mps 765 mmHg 83%
    09:00 +10°C° 0 mm 4 mps 765 mmHg 79%
    10:00 +10°C° 0 mm 4 mps 765 mmHg 75%
    11:00 +10°C° 0 mm 5 mps 765 mmHg 70%
    12:00 +10°C° 0 mm 5 mps 765 mmHg 66%
    13:00 +10°C° 0 mm 5 mps 765 mmHg 65%
    14:00 +10°C° 0 mm 5 mps 765 mmHg 65%
    15:00 +10°C° 0 mm 5 mps 765 mmHg 64%
    16:00 +11°C° 0 mm 4 mps 765 mmHg 67%
    17:00 +10°C° 0 mm 4 mps 764 mmHg 69%
    18:00 +10°C° 0 mm 4 mps 764 mmHg 71%
    19:00 +9°C° 0 mm 3 mps 764 mmHg 74%
    20:00 +8°C° 0 mm 2 mps 764 mmHg 77%
    21:00 +7°C° 0 mm 2 mps 765 mmHg 80%
    22:00 +7°C° 0 mm 2 mps 764 mmHg 79%
    23:00 +8°C° 0 mm 1 mps 764 mmHg 79%

    12 April, Sunday

    Time Temperature Precipitation Wind Pressure Humidity
    00:00 +8°C° 0 mm 1 mps 763 mmHg 79%
    01:00 +7°C° 0 mm 1 mps 762 mmHg 79%
    02:00 +7°C° 0 mm 1 mps 761 mmHg 80%
    03:00 +6°C° 0 mm 2 mps 761 mmHg 80%
    04:00 +6°C° 0 mm 2 mps 760 mmHg 81%
    05:00 +6°C° 0 mm 2 mps 760 mmHg 81%
    06:00 +6°C° 0 mm 2 mps 759 mmHg 82%
    07:00 +8°C° 0 mm 2 mps 758 mmHg 76%
    08:00 +10°C° 0 mm 2 mps 758 mmHg 70%
    09:00 +13°C° 0 mm 1 mps 757 mmHg 64%
    10:00 +14°C° 0 mm 2 mps 757 mmHg 59%
    11:00 +15°C° 0 mm 2 mps 757 mmHg 55%
    12:00 +16°C° 0 mm 2 mps 756 mmHg 51%
    13:00 +16°C° 0 mm 3 mps 756 mmHg 53%
    14:00 +16°C° 0 mm 3 mps 756 mmHg 55%
    15:00 +15°C° 0 mm 4 mps 756 mmHg 57%
    16:00 +14°C° 0.1 mm 5 mps 757 mmHg 62%
    17:00 +13°C° 0.1 mm 5 mps 757 mmHg 68%
    18:00 +11°C° 0.1 mm 6 mps 758 mmHg 74%
    19:00 +10°C° 0.1 mm 7 mps 758 mmHg 76%
    20:00 +10°C° 0.1 mm 7 mps 759 mmHg 78%
    21:00 +9°C° 0.1 mm 8 mps 760 mmHg 79%
    22:00 +9°C° 0 mm 8 mps 761 mmHg 79%
    23:00 +7°C° 0 mm 8 mps 762 mmHg 78%
    Show more